Regional Weather Roundup
Issued by NWS

Home | Current Version | Previous Version | Text Only | Print | Product List | Glossary Off
Versions: 1 2 3 4 5 6 7 8 9 10 11 12 13 14 15 16 17 18 19 20 21 22 23 24 25 26 27 28 29 30 31 32 33 34 35 36 37 38 39 40 41 42 43 44 45 46 47 48 49 50

000
ASUS43 KMKX 012121
RWRWI

WISCONSIN REGIONAL WEATHER ROUNDUP
NATIONAL WEATHER SERVICE MILWAUKEE/SULLIVAN WI
400 PM CDT WED JUL 01 2015

NOTE: "FAIR" INDICATES FEW OR NO CLOUDS BELOW 12,000 FEET WITH NO
SIGNIFICANT WEATHER AND/OR OBSTRUCTIONS TO VISIBILITY.

WIZ001-002-006>008-014>016-023>028-012200-
NORTHWEST WISCONSIN

CITY           SKY/WX    TMP DP  RH WIND       PRES   REMARKS
SUPERIOR ARPT  SUNNY     73  58  58 E5        29.99F
ASHLAND        SUNNY     70  48  45 E6        30.01F
HAYWARD        PTSUNNY   72  48  42 CALM      30.01S
SIREN          MOSUNNY   73  48  41 E3        30.01S
CUMBERLAND     MOSUNNY   70  46  43 E3        30.01S
RICE LAKE      SUNNY     72  50  45 NW6       30.02S
CHETEK         MOSUNNY   71  52  50 CALM      30.00F
LADYSMITH      SUNNY     72  49  43 NE6       30.01F
EAU CLAIRE     SUNNY     73  51  46 N6        29.99F
MENOMONIE      SUNNY     71  48  43 NE6       30.00F
NEW RICHMOND   SUNNY     72  50  45 N3        30.01S
OSCEOLA        SUNNY     73  50  43 CALM      30.02F
$$

WIZ003>005-009-010-017-018-012200-
NORTH CENTRAL WISCONSIN

CITY           SKY/WX    TMP DP  RH WIND       PRES   REMARKS
MANITOWISH WTR SUNNY     68  46  44 NE3       30.01F
ARBOR VITAE    SUNNY     69  45  41 CALM      30.01F
WOODRUFF       SUNNY     69  45  41 CALM      30.01F
RHINELANDER    SUNNY     69  42  37 VRB3      30.02S
EAGLE RIVER    SUNNY     68  39  34 N7        30.01S
LAND O LAKES   SUNNY     68  42  38 N7        30.03S
PHILLIPS       SUNNY     69  47  45 E5        30.00F
TOMAHAWK       MOSUNNY   69  44  40 NE5       30.01F
MEDFORD        SUNNY     69  45  42 NE6       30.00S
MERRILL        MOSUNNY   70  46  42 NE7       30.00S
$$

WIZ029-030-035-036-043>047-012200-
CENTRAL WISCONSIN

CITY           SKY/WX    TMP DP  RH WIND       PRES   REMARKS
WAUSAU         MOSUNNY   72  42  34 NE7       29.97F
MOSINEE        SUNNY     70  45  40 N6        29.99F
MARSHFIELD     MOSUNNY   71  44  37 CALM      29.99F
STEVENS POINT  PTSUNNY   68  44  41 NE8       29.99S
WAUPACA        PTSUNNY   71  46  40 E5        29.98F
WAUTOMA        PTSUNNY   71  44  37 VRB3      29.98F
WISC RAPIDS    PTSUNNY   71  42  35 VRB3      30.00F
CAMP DOUGLAS   PTSUNNY   72  50  46 N7        29.98S
$$

WIZ011>013-019>022-031-037>040-048>050-012200-
NORTHEAST WISCONSIN

CITY           SKY/WX    TMP DP  RH WIND       PRES   REMARKS
ANTIGO         MOSUNNY   67  44  42 CALM      30.01S
SHAWANO        PTSUNNY   73  44  35 CALM      29.98F
OCONTO         PTSUNNY   69  53  58 SE7       29.97F
STURGEON BAY   MOSUNNY   64  50  59 N7        30.01S
GREEN BAY      CLOUDY    67  51  56 NE6       29.99F
MANITOWOC      CLOUDY    59  54  83 MISG      30.01S
APPLETON       MOSUNNY   66  48  52 NE12      29.99F
CLINTONVILLE   PTSUNNY   70  41  35 N3        29.98F
OSHKOSH        PTSUNNY   66  52  60 E8        29.98S
$$

WIZ032>034-041-042-053>061-012200-
SOUTHWEST WISCONSIN

CITY           SKY/WX    TMP DP  RH WIND       PRES   REMARKS
LA CROSSE      PTSUNNY   69  48  47 CALM      29.99S
SPARTA         PTSUNNY   73  45  37 N3G18     29.99S
VIROQUA        PTSUNNY   66  48  52 NE5       30.01R
BOSCOBEL       CLOUDY    68  50  52 VRB3      29.98F
PRAIRIE DU CHI CLOUDY    65  49  55 E3        29.98F
PLATTEVILLE    CLOUDY    67  50  54 N7        29.98S
$$

WIZ056-057-062-063-064-067-068-012200-
SOUTH CENTRAL WISCONSIN

CITY           SKY/WX    TMP DP  RH WIND       PRES   REMARKS
REEDSBURG      PTSUNNY   67  49  51 CALM      29.98S
BARABOO/DELLS  PTSUNNY   68  44  42 NE3       29.98S
LONE ROCK      CLOUDY    69  48  47 N3        29.98F
MINERAL POINT  CLOUDY    66  48  52 NE6       29.98F
MADISON        CLOUDY    69  49  48 N9        29.96F
MIDDLETON      CLOUDY    69  46  42 N5        29.97F
WATERTOWN      PTSUNNY   67  54  62 N7        29.96S
MONROE         CLOUDY    66  50  55 N7        29.97S
JANESVILLE     MOSUNNY   70  48  46 NE7       29.95F
$$

WIZ051-052-058>065-066-070>072-012200-
SOUTHEAST WISCONSIN

CITY           SKY/WX    TMP DP  RH WIND       PRES   REMARKS
MILWAUKEE      CLOUDY    56  50  80 E10       30.00R
WAUKESHA       MOSUNNY   63  52  67 E7        29.98S
MILWAUKEE/TIMM SUNNY     61  48  63 NE9       30.00R
RACINE         PTSUNNY   58  50  75 E12       30.01R
BURLINGTON     CLOUDY    63  52  68 E10       29.97R
KENOSHA        CLOUDY    60  51  72 E10       29.99S
FOND DU LAC    PTSUNNY   69  53  56 NE14      29.98F
SHEBOYGAN      PTSUNNY   60  53  77 NE8       30.00R
WEST BEND      PTSUNNY   64  52  63 E5        29.97F
JUNEAU         PTSUNNY   67  52  58 N10       29.97F
$$

LSZ147-162-012200-
LAKE SUPERIOR

STATION/POSITION TIME  TEMP    WIND        PRES    WAVE
                       AIR SEA DIR/SP/G            HT/PER
                 (UTC) (F)     (DEG/KT/KT) (MB)    (FT/S)
W MID LAKE BUOY  2050   48 39  190/  4/  4 1017.3F   1
DEVILS ISLAND    2100   65     130/  6/  8 1016.4F
SAXON HARBOR     2040   62        CALM     1016.6F
$$

LMZ867-665-643>646-012200-
LAKE MICHIGAN

STATION/POSITION TIME  TEMP    WIND        PRES    WAVE
                       AIR SEA DIR/SP/G            HT/PER
                 (UTC) (F)     (DEG/KT/KT) (MB)    (FT/S)
CHAMBERS ISLAND  2000   61      60/  5/  8 1015.6F
N MID LAKE BUOY  2050   52 45  240/  4/  6 1015.7F   1/ 4
NORTHPORT PIER   2000   60     360/  9/ 12 1015.6S
SISTER BAY       2014   68     360/ 15/ 19   N/A
ALGOMA LAKESHORE 2010          160/  6/  8   N/A
KEWAUNEE LAKESHO 2000   57     140/  2/  5 1015.3R
SHEBOYGAN LAKESH 2100   53      50/  7/  9 1016.4R
PORT WASHINGTON  2000   56      70/  7/ 10 1016.6S
ATWATER BUOY     2100   53      70/  8/ 10 1017.1R
MILWAUKEE LAKESH 2100   53      50/  8/ 11   N/A
KENOSHA   LAKESH 2100   55      60/  8/  8 1015.6S
$$

TC  - TEMPERATURE IN CELSIUS
VSB - VISIBILITY IN STATUTE MILES
WCI - WIND CHILL INDEX
HX  - HEAT INDEX




USA.gov is the U.S. government's official web portal to all federal, state and local government web resources and services.